User: anonymous   Login
Location: Unspecified
(0.0000°N, 0.0000°E)
Time: 19:29:27
(UTC+00:00)
Language:

STARLINK-30983 - Orbit

View from above orbital plane
View from above orbital plane
View from above satellite
View from above satellite

Ground track
Ground track

The orbit is defined by the following mean orbital elements,

1 58514U          26145.40525154 +.00000000 +00000-0 +37800-4 0 00002
2 58514  43.0054  30.2135 0001404 261.0986  98.9707 15.27583772    03
Epoch (UTC): 25 May 2026 09:43:33
Eccentricity: 0.0001404
inclination: 43.0054°
perigee height: 482 km
apogee height: 484 km
right ascension of ascending node: 30.2135°
argument of perigee: 261.0986°
revolutions per day: 15.27583772
mean anomaly at epoch: 98.9707°

The dashed part of the orbit path shows where the satellite is in the earth's shadow,  

DLR